GW4651 Weather Reports


Display with metric or nautical units.
time (UTC)temp
F
wind
direction
speed
MPH
gust
MPH
rain 1hr
in
rain 24hr
in
rain mn
in
humidity
%
barometer
mb
20260507011606 56 164 0.0 3.0 0.00 0.00 0.00 50 1008.6
20260507011106 56 195 2.0 3.0 0.00 0.00 0.00 49 1008.4
20260507010106 56 133 2.0 3.0 0.00 0.00 0.00 48 1008.2
20260507005605 56 134 2.0 3.0 0.00 0.00 0.00 50 1008.6
20260507005106 56 190 2.0 5.0 0.00 0.00 0.00 50 1008.6
20260507004606 56 144 2.0 3.0 0.00 0.00 0.00 49 1008.5
20260507004106 56 158 2.0 3.0 0.00 0.00 0.00 49 1008.5
20260507003106 56 117 2.0 3.0 0.00 0.00 0.00 48 1008.7
20260507002606 56 134 2.0 3.0 0.00 0.00 0.00 49 1008.7
20260507002106 56 193 3.0 5.0 0.00 0.00 0.00 49 1008.9
20260507001609 57 190 3.0 5.0 0.00 0.00 0.00 48 1008.9
20260507001106 56 83 3.0 5.0 0.00 0.00 0.00 48 1009.0
20260507000608 56 100 3.0 5.0 0.00 0.00 0.00 48 1008.8
20260507000106 56 115 2.0 5.0 0.00 0.00 0.00 49 1009.0
20260506235606 56 177 4.0 6.0 0.00 0.00 0.00 49 1008.7
20260506235107 56 169 3.0 5.0 0.00 0.00 0.00 49 1009.0
20260506234606 56 194 3.0 5.0 0.00 0.00 0.00 49 1008.8
20260506234106 56 154 3.0 5.0 0.00 0.00 0.00 48 1009.0
20260506233606 57 195 2.0 6.0 0.00 0.00 0.00 48 1008.8
20260506232106 57 115 6.0 8.0 0.00 0.00 0.00 46 1008.7
20260506231606 58 116 5.0 9.0 0.00 0.00 0.00 46 1008.7
20260506231106 58 145 6.0 10.0 0.00 0.00 0.00 47 1009.1
20260506230605 58 134 5.0 9.0 0.00 0.00 0.00 47 1008.7
20260506225107 58 121 4.0 9.0 0.00 0.00 0.00 48 1008.8
20260506224605 58 135 6.0 13.0 0.00 0.00 0.00 48 1008.8
20260506224106 58 97 6.0 12.0 0.00 0.00 0.00 49 1008.5
20260506223607 58 120 6.0 15.0 0.00 0.00 0.00 50 1008.6
20260506222105 58 116 6.0 15.0 0.00 0.00 0.00 50 1008.6
20260506221605 58 117 7.0 17.0 0.00 0.00 0.00 51 1008.5
20260506221107 58 133 5.0 10.0 0.00 0.00 0.00 52 1008.5
20260506220606 58 121 7.0 14.0 0.00 0.00 0.00 52 1008.6
20260506215607 58 93 7.0 12.0 0.00 0.00 0.00 53 1008.7
20260506215106 58 103 6.0 12.0 0.00 0.00 0.00 54 1008.7
20260506214606 58 101 10.0 16.0 0.00 0.00 0.00 54 1008.6
20260506214106 58 104 8.0 15.0 0.00 0.00 0.00 53 1008.8
20260506212607 58 113 6.0 12.0 0.00 0.00 0.00 53 1008.8
20260506212106 58 109 6.0 15.0 0.00 0.00 0.00 52 1008.6
20260506211607 59 110 7.0 10.0 0.00 0.00 0.00 51 1008.6
20260506211106 59 123 6.0 12.0 0.00 0.00 0.00 50 1008.5
20260506205606 59 131 4.0 9.0 0.00 0.00 0.00 50 1008.4
20260506205106 59 121 6.0 9.0 0.00 0.00 0.00 49 1008.2
20260506204606 59 128 7.0 13.0 0.00 0.00 0.00 48 1008.3
20260506204106 60 144 6.0 9.0 0.00 0.00 0.00 49 1008.0
20260506203106 60 119 5.0 8.0 0.00 0.00 0.00 49 1008.0
20260506202606 60 136 5.0 7.0 0.00 0.00 0.00 48 1007.9
20260506202106 61 165 6.0 9.0 0.00 0.00 0.00 47 1007.7
20260506201106 60 132 5.0 8.0 0.00 0.00 0.00 47 1007.5
20260506200606 61 107 5.0 8.0 0.00 0.00 0.00 46 1007.4
20260506200106 61 149 5.0 7.0 0.00 0.00 0.00 46 1007.3
20260506195605 61 136 4.0 7.0 0.00 0.00 0.00 46 1007.3
20260506194606 61 157 2.0 6.0 0.00 0.00 0.00 47 1007.3
20260506194106 61 158 3.0 6.0 0.00 0.00 0.00 47 1007.3
20260506193106 61 149 2.0 7.0 0.00 0.00 0.00 46 1007.1
20260506192605 62 156 3.0 6.0 0.00 0.00 0.00 46 1007.0
20260506192107 62 168 2.0 5.0 0.00 0.00 0.00 46 1006.9
20260506191607 62 144 2.0 5.0 0.00 0.00 0.00 46 1006.7
20260506191107 62 173 2.0 3.0 0.00 0.00 0.00 46 1006.6
20260506190606 63 182 2.0 3.0 0.00 0.00 0.00 45 1006.5
20260506185605 64 189 4.0 6.0 0.00 0.00 0.00 44 1006.3
20260506185105 64 215 2.0 7.0 0.00 0.00 0.00 44 1006.2
20260506184605 65 188 4.0 7.0 0.00 0.00 0.00 43 1006.0
20260506184106 66 200 5.0 8.0 0.00 0.00 0.00 42 1005.7
20260506183106 66 200 5.0 10.0 0.00 0.00 0.00 41 1005.8
20260506182606 66 201 7.0 12.0 0.00 0.00 0.00 40 1005.8
20260506182105 67 210 7.0 12.0 0.00 0.00 0.00 40 1005.5
20260506181605 67 214 6.0 12.0 0.00 0.00 0.00 41 1005.6
20260506181105 67 226 5.0 10.0 0.00 0.00 0.00 41 1005.4
20260506180606 66 258 6.0 9.0 0.00 0.00 0.00 41 1005.8
20260506180106 66 267 4.0 7.0 0.00 0.00 0.00 39 1006.0
20260506175606 66 300 2.0 5.0 0.00 0.00 0.00 40 1006.0
20260506175105 65 317 3.0 6.0 0.00 0.00 0.00 40 1006.1
20260506174605 65 274 3.0 6.0 0.00 0.00 0.00 40 1006.0
20260506173607 65 268 3.0 6.0 0.00 0.00 0.00 39 1006.1
20260506173106 65 293 3.0 7.0 0.00 0.00 0.00 39 1006.0
20260506172607 66 303 5.0 7.0 0.00 0.00 0.00 38 1006.0
20260506172105 65 347 3.0 6.0 0.00 0.00 0.00 38 1005.9
20260506171606 65 23 5.0 10.0 0.00 0.00 0.00 39 1005.9
20260506171106 66 2 6.0 8.0 0.00 0.00 0.00 40 1006.1
20260506170604 66 9 3.0 8.0 0.00 0.00 0.00 39 1005.9
20260506170106 66 314 4.0 8.0 0.00 0.00 0.00 39 1006.0
20260506165606 66 287 4.0 7.0 0.00 0.00 0.00 37 1006.2
20260506165106 66 331 6.0 12.0 0.00 0.00 0.00 38 1006.1
20260506164606 66 251 6.0 9.0 0.00 0.00 0.00 37 1006.1
20260506164105 66 296 5.0 14.0 0.00 0.00 0.00 38 1006.0
20260506163605 66 243 8.0 13.0 0.00 0.00 0.00 38 1006.1
20260506163107 66 295 6.0 12.0 0.00 0.00 0.00 38 1006.0
20260506162605 67 352 5.0 9.0 0.00 0.00 0.00 38 1006.0
20260506162104 67 307 4.0 6.0 0.00 0.00 0.00 38 1005.9
20260506161606 67 306 4.0 9.0 0.00 0.00 0.00 37 1005.9
20260506161107 69 291 2.0 6.0 0.00 0.00 0.00 38 1005.5
20260506160606 68 264 6.0 13.0 0.00 0.00 0.00 37 1005.8
20260506160106 68 329 4.0 7.0 0.00 0.00 0.00 37 1005.6
20260506155605 67 284 5.0 9.0 0.00 0.00 0.00 39 1005.8
20260506155105 67 288 5.0 9.0 0.00 0.00 0.00 38 1005.8
20260506154606 67 306 6.0 12.0 0.00 0.00 0.00 38 1006.0
20260506153606 68 345 6.0 13.0 0.00 0.00 0.00 37 1005.8
20260506152606 66 289 5.0 13.0 0.00 0.00 0.00 38 1006.4
20260506152105 66 286 5.0 13.0 0.00 0.00 0.00 40 1006.3
20260506151606 66 306 7.0 13.0 0.00 0.00 0.00 38 1006.2
20260506151105 66 338 6.0 13.0 0.00 0.00 0.00 38 1006.4
20260506150605 67 331 5.0 12.0 0.00 0.00 0.00 38 1006.4
20260506150105 69 310 6.0 12.0 0.00 0.00 0.00 38 1006.0
20260506145605 68 295 4.0 15.0 0.00 0.00 0.00 38 1006.3
20260506145106 67 267 10.0 15.0 0.00 0.00 0.00 38 1006.4
20260506144106 67 245 9.0 13.0 0.00 0.00 0.00 38 1006.6
20260506143105 67 243 6.0 9.0 0.00 0.00 0.00 38 1006.6
20260506142607 68 298 6.0 13.0 0.00 0.00 0.00 37 1006.6
20260506142105 69 274 7.0 13.0 0.00 0.00 0.00 36 1006.3
20260506141605 67 265 6.0 13.0 0.00 0.00 0.00 37 1006.7
20260506141106 68 286 7.0 14.0 0.00 0.00 0.00 37 1006.7
20260506140605 68 325 6.0 13.0 0.00 0.00 0.00 38 1006.6
20260506140105 67 263 8.0 14.0 0.00 0.00 0.00 38 1006.8
20260506135105 68 245 6.0 13.0 0.00 0.00 0.00 38 1006.7
20260506134105 68 252 10.0 13.0 0.00 0.00 0.00 37 1006.7
20260506133605 67 11 6.0 12.0 0.00 0.00 0.00 37 1006.9
20260506132605 68 304 5.0 9.0 0.00 0.00 0.00 37 1006.7
20260506132105 68 282 4.0 6.0 0.00 0.00 0.00 37 1006.9
20260506131604 67 338 5.0 9.0 0.00 0.00 0.00 37 1007.1
20260506131105 68 299 7.0 13.0 0.00 0.00 0.00 37 1007.1
20260506130605 67 282 7.0 12.0 0.00 0.00 0.00 37 1007.3
20260506130106 67 334 6.0 12.0 0.00 0.00 0.00 37 1007.1
20260506125606 67 300 3.0 14.0 0.00 0.00 0.00 39 1007.1
20260506125105 66 302 5.0 12.0 0.00 0.00 0.00 38 1007.3
20260506124605 66 304 7.0 12.0 0.00 0.00 0.00 39 1007.4
20260506124105 65 280 7.0 13.0 0.00 0.00 0.00 39 1007.5
20260506123605 66 265 6.0 13.0 0.00 0.00 0.00 39 1007.4
20260506123105 66 291 5.0 13.0 0.00 0.00 0.00 38 1007.6
20260506122606 65 252 12.0 15.0 0.00 0.00 0.00 38 1007.8
20260506122105 66 268 6.0 9.0 0.00 0.00 0.00 38 1007.5
20260506121606 67 320 3.0 7.0 0.00 0.00 0.00 38 1007.4
20260506121105 67 190 3.0 7.0 0.00 0.00 0.00 36 1007.4
20260506120605 65 287 1.0 6.0 0.00 0.00 0.00 39 1007.5
20260506120106 66 50 4.0 8.0 0.00 0.00 0.00 37 1007.5
20260506115606 66 295 3.0 7.0 0.00 0.00 0.00 37 1007.6
20260506115105 66 267 3.0 9.0 0.00 0.00 0.00 38 1007.5
20260506113605 65 290 8.0 13.0 0.00 0.00 0.00 38 1008.3
20260506113105 65 294 7.0 13.0 0.00 0.00 0.00 38 1008.1
20260506112605 64 293 10.0 18.0 0.00 0.00 0.00 39 1008.1
20260506112105 64 350 6.0 10.0 0.00 0.00 0.00 39 1008.1
20260506110604 64 212 2.0 9.0 0.00 0.00 0.00 36 1008.3
20260506110106 64 7 6.0 10.0 0.00 0.00 0.00 37 1008.4
20260506105605 65 348 7.0 9.0 0.00 0.00 0.00 36 1008.3
20260506105106 63 18 4.0 9.0 0.00 0.00 0.00 37 1008.6
20260506104605 64 339 3.0 9.0 0.00 0.00 0.00 37 1008.3
20260506104105 63 350 3.0 10.0 0.00 0.00 0.00 37 1008.5
20260506103605 64 351 3.0 7.0 0.00 0.00 0.00 37 1008.6
20260506103105 63 330 6.0 10.0 0.00 0.00 0.00 37 1008.4
20260506102105 63 315 6.0 12.0 0.00 0.00 0.00 39 1009.0
20260506101605 62 284 3.0 10.0 0.00 0.00 0.00 38 1008.8
20260506101105 62 343 7.0 14.0 0.00 0.00 0.00 38 1008.8
20260506100605 63 2 7.0 12.0 0.00 0.00 0.00 37 1008.9
20260506100106 62 36 5.0 12.0 0.00 0.00 0.00 39 1009.2
20260506095604 62 19 7.0 12.0 0.00 0.00 0.00 38 1009.1
20260506095105 61 0 3.0 9.0 0.00 0.00 0.00 35 1009.4
20260506094606 62 30 7.0 13.0 0.00 0.00 0.00 39 1009.2
20260506094105 61 8 9.0 14.0 0.00 0.00 0.00 37 1009.2
20260506093604 62 5 8.0 13.0 0.00 0.00 0.00 38 1008.9
20260506093104 62 19 6.0 10.0 0.00 0.00 0.00 40 1009.3
20260506092604 62 313 6.0 12.0 0.00 0.00 0.00 37 1009.1
20260506090605 61 41 5.0 10.0 0.00 0.00 0.00 43 1009.2
20260506085106 60 287 5.0 12.0 0.00 0.00 0.00 45 1009.4
20260506084105 60 47 6.0 9.0 0.00 0.00 0.00 47 1009.3
20260506083605 60 298 3.0 6.0 0.00 0.00 0.00 55 1009.4
20260506083104 58 281 5.0 7.0 0.00 0.00 0.00 61 1009.6
20260506082604 58 253 4.0 7.0 0.00 0.00 0.00 60 1009.5
20260506082105 58 234 5.0 6.0 0.00 0.00 0.00 62 1009.8
20260506081605 59 222 3.0 5.0 0.00 0.00 0.00 60 1009.4
20260506081105 57 214 2.0 6.0 0.00 0.00 0.00 63 1009.7
20260506080106 56 242 4.0 5.0 0.00 0.00 0.00 66 1009.9
20260506072605 52 218 2.0 3.0 0.00 0.00 0.00 71 1010.8
20260506072105 52 208 1.0 3.0 0.00 0.00 0.00 72 1010.8
20260506071604 52 234 3.0 5.0 0.00 0.00 0.00 72 1010.8
20260506071105 51 240 1.0 3.0 0.00 0.00 0.00 72 1010.8
20260506070605 51 96 1.0 2.0 0.00 0.00 0.00 72 1010.9
20260506070104 51 306 0.0 3.0 0.00 0.00 0.00 73 1010.8
20260506062105 50 79 3.0 6.0 0.00 0.00 0.00 72 1011.1
20260506061605 49 27 2.0 3.0 0.00 0.00 0.00 72 1011.1
20260506061106 50 188 2.0 7.0 0.00 0.00 0.00 73 1010.9
20260506060606 50 191 1.0 5.0 0.00 0.00 0.00 72 1010.9
20260506060106 50 219 3.0 5.0 0.00 0.00 0.00 73 1010.8
20260506051106 50 353 2.0 3.0 0.00 0.00 0.00 73 1010.8
20260506050607 51 34 2.0 5.0 0.00 0.00 0.00 72 1010.6
20260506050107 51 10 3.0 5.0 0.00 0.00 0.00 72 1010.5
20260506045106 51 36 3.0 5.0 0.00 0.00 0.00 71 1010.6
20260506044607 51 48 4.0 6.0 0.00 0.00 0.00 71 1010.5
20260506043607 51 55 5.0 7.0 0.00 0.00 0.00 70 1010.7
20260506042106 51 68 2.0 5.0 0.00 0.00 0.00 74 1010.9
20260506041606 51 40 2.0 3.0 0.00 0.00 0.00 73 1010.9
20260506040107 51 78 1.0 2.0 0.00 0.00 0.00 73 1010.8
20260506035607 51 42 2.0 5.0 0.00 0.00 0.00 75 1011.0
20260506034106 50 57 3.0 6.0 0.00 0.00 0.00 78 1011.1
20260506033606 51 58 4.0 6.0 0.00 0.00 0.00 77 1011.2
20260506033106 51 52 3.0 7.0 0.00 0.00 0.00 76 1011.2